Regional Weather Roundup
Issued by NWS

Home | Current Version | Previous Version | Text Only | Print | Product List | Glossary On
Versions: 1 2 3 4 5 6 7 8 9 10 11 12 13 14 15 16 17 18 19 20 21 22 23 24 25 26 27 28 29 30 31 32 33 34 35 36 37 38 39 40 41 42 43 44 45 46 47 48 49 50
000
ASUS44 KOUN 061510
RWROK

WEATHER ROUNDUP FOR OKLAHOMA
NATIONAL WEATHER SERVICE NORMAN OK
1000 AM CDT FRI MAY 06 2016

NOTE: "FAIR" INDICATES FEW OR NO CLOUDS BELOW 12,000 FEET WITH NO
      SIGNIFICANT WEATHER AND/OR OBSTRUCTIONS TO VISIBILITY.

OKZ001>007-009>012-014-015-017-061600-
NORTHWEST OKLAHOMA AND THE PANHANDLE

CITY           SKY/WX    TMP DP  RH WIND       PRES   REMARKS
GAGE           SUNNY     73  48  41 S18       30.09F
GUYMON         SUNNY     67  45  45 S15       30.05F
ENID/WOODRING  MOSUNNY   70  55  60 S5        30.09S
$$

OKZ016-021>023-033>039-044-045-061600-
SOUTHWEST OKLAHOMA

CITY           SKY/WX    TMP DP  RH WIND       PRES   REMARKS
LAWTON/REGL    CLOUDY    70  53  54 S9        30.11R
LAWTON/FT SILL SUNNY     70  55  58 S6        30.10R
FREDERICK      CLOUDY    70  52  52 SE7       30.08S
CLINTON        SUNNY     71  48  43 S14       30.12F
HOBART         SUNNY     73  50  44 S12       30.12R
ALTUS AFB      SUNNY     70  49  46 SE10      30.10S
$$

OKZ018>020-024>031-061600-
CENTRAL OKLAHOMA

CITY           SKY/WX    TMP DP  RH WIND       PRES   REMARKS
OKLAHOMA CITY  CLOUDY    69  51  52 S10       30.12R
OKC/WILEY POST CLOUDY    72  51  47 S12       30.12R
OKC/TINKER AFB SUNNY     69  49  49 S10       30.11S
STILLWATER     SUNNY     70  51  51 SE10      30.11F
GUTHRIE        SUNNY     72  48  42 S9        30.11S
$$

OKZ008-013-054>072-061600-
NORTHEAST OKLAHOMA

CITY           SKY/WX    TMP DP  RH WIND       PRES   REMARKS
TULSA          MOSUNNY   69  47  45 S10       30.12S
TULSA/JONES    SUNNY     69  46  43 S8        30.13F
PONCA CITY     SUNNY     70  50  49 VRB7      30.11S
BARTLESVILLE   SUNNY     71  49  45 VRB7      30.14S
MUSKOGEE       SUNNY     64  48  56 SE8       30.16S
$$

OKZ032-040>043-046>053-073>077-061600-
SOUTH CENTRAL/SOUTHEAST OKLAHOMA

CITY           SKY/WX    TMP DP  RH WIND       PRES   REMARKS
ARDMORE/DWNTWN SUNNY     70  48  46 SE7       30.12S
MCALESTER      MOSUNNY   69  50  50 VRB5      30.15R
$$




USA.gov is the U.S. government's official web portal to all federal, state and local government web resources and services.